TimeEST,TemperatureF,Dew PointF,Humidity,Sea Level PressureIn,VisibilityMPH,Wind Direction,Wind SpeedMPH,Gust SpeedMPH,PrecipitationIn,Events,Conditions,WindDirDegrees,DateUTC
12:15 AM,39.2,39.2,100,29.62,1.2,Calm,Calm,-,N/A,,Overcast,0,2013-02-27 05:15:00
12:35 AM,39.2,39.2,100,29.61,0.8,Calm,Calm,-,N/A,,Overcast,0,2013-02-27 05:35:00
12:55 AM,39.2,39.2,100,29.61,0.5,Calm,Calm,-,N/A,Fog,Fog,0,2013-02-27 05:55:00
1:15 AM,39.2,39.2,100,29.61,0.5,Calm,Calm,-,N/A,Fog,Fog,0,2013-02-27 06:15:00
1:35 AM,39.2,39.2,100,29.62,0.8,Calm,Calm,-,N/A,,Overcast,0,2013-02-27 06:35:00
1:55 AM,39.2,39.2,100,29.62,2.0,Calm,Calm,-,N/A,,Overcast,0,2013-02-27 06:55:00
2:15 AM,39.2,39.2,100,29.61,2.0,WSW,3.5,-,N/A,,Overcast,250,2013-02-27 07:15:00
2:35 AM,39.2,39.2,100,29.61,2.5,Calm,Calm,-,N/A,,Overcast,0,2013-02-27 07:35:00
2:55 AM,39.2,39.2,100,29.60,2.5,Calm,Calm,-,N/A,,Overcast,0,2013-02-27 07:55:00
3:15 AM,39.2,39.2,100,29.60,2.5,Calm,Calm,-,N/A,,Overcast,0,2013-02-27 08:15:00
3:35 AM,37.4,37.4,100,29.60,2.5,West,3.5,-,N/A,,Overcast,260,2013-02-27 08:35:00
3:55 AM,37.4,37.4,100,29.60,5.0,West,5.8,-,N/A,,Overcast,260,2013-02-27 08:55:00
4:15 AM,37.4,37.4,100,29.60,10.0,WSW,6.9,-,N/A,,Overcast,250,2013-02-27 09:15:00
4:35 AM,37.4,37.4,100,29.61,10.0,WSW,6.9,-,N/A,,Overcast,250,2013-02-27 09:35:00
4:55 AM,37.4,37.4,100,29.62,10.0,West,4.6,-,N/A,,Scattered Clouds,280,2013-02-27 09:55:00
5:15 AM,39.2,37.4,93,29.63,10.0,West,5.8,-,N/A,,Clear,260,2013-02-27 10:15:00
5:35 AM,37.4,37.4,100,29.63,10.0,West,5.8,-,N/A,,Clear,270,2013-02-27 10:35:00
5:55 AM,37.4,37.4,100,29.63,10.0,West,8.1,-,N/A,,Scattered Clouds,260,2013-02-27 10:55:00
6:15 AM,37.4,37.4,100,29.64,10.0,West,4.6,-,N/A,,Scattered Clouds,260,2013-02-27 11:15:00
6:35 AM,37.4,37.4,100,29.65,10.0,West,5.8,-,N/A,,Mostly Cloudy,260,2013-02-27 11:35:00
7:15 AM,37.4,37.4,100,29.68,10.0,WNW,6.9,-,N/A,,Overcast,290,2013-02-27 12:15:00
7:35 AM,39.2,37.4,93,29.69,10.0,WNW,5.8,-,N/A,,Overcast,290,2013-02-27 12:35:00
7:55 AM,39.2,35.6,87,29.71,10.0,WNW,8.1,-,N/A,,Mostly Cloudy,290,2013-02-27 12:55:00
8:15 AM,39.2,35.6,87,29.71,10.0,WNW,10.4,-,N/A,,Mostly Cloudy,290,2013-02-27 13:15:00
8:35 AM,39.2,35.6,87,29.70,10.0,WNW,6.9,-,N/A,,Mostly Cloudy,290,2013-02-27 13:35:00
8:55 AM,39.2,35.6,87,29.71,10.0,West,6.9,-,N/A,,Mostly Cloudy,280,2013-02-27 13:55:00
9:15 AM,41.0,35.6,81,29.72,10.0,West,4.6,-,N/A,,Overcast,270,2013-02-27 14:15:00
9:35 AM,41.0,35.6,81,29.74,10.0,West,4.6,-,N/A,,Overcast,260,2013-02-27 14:35:00
10:15 AM,42.8,35.6,76,29.74,10.0,West,6.9,-,N/A,,Overcast,270,2013-02-27 15:15:00
10:35 AM,42.8,35.6,76,29.74,10.0,West,6.9,-,N/A,,Overcast,280,2013-02-27 15:35:00
10:55 AM,42.8,35.6,76,29.74,10.0,West,10.4,-,N/A,,Overcast,270,2013-02-27 15:55:00
11:15 AM,42.8,35.6,76,29.75,10.0,West,8.1,-,N/A,,Overcast,260,2013-02-27 16:15:00
11:35 AM,42.8,35.6,76,29.75,10.0,West,10.4,19.6,N/A,,Overcast,280,2013-02-27 16:35:00
11:55 AM,42.8,35.6,76,29.75,10.0,West,9.2,17.3,N/A,,Overcast,280,2013-02-27 16:55:00
12:15 PM,42.8,33.8,70,29.75,10.0,West,9.2,17.3,N/A,,Overcast,280,2013-02-27 17:15:00
12:35 PM,42.8,35.6,76,29.75,10.0,West,6.9,-,N/A,,Overcast,280,2013-02-27 17:35:00
1:15 PM,42.8,35.6,76,29.74,10.0,West,9.2,-,N/A,,Overcast,260,2013-02-27 18:15:00
1:35 PM,44.6,35.6,71,29.73,10.0,WSW,10.4,-,N/A,,Overcast,240,2013-02-27 18:35:00
1:55 PM,46.4,35.6,66,29.72,10.0,WSW,8.1,18.4,N/A,,Overcast,240,2013-02-27 18:55:00
2:15 PM,44.6,35.6,71,29.72,10.0,WSW,10.4,19.6,N/A,,Mostly Cloudy,250,2013-02-27 19:15:00
2:35 PM,44.6,35.6,71,29.72,10.0,WSW,9.2,16.1,N/A,,Mostly Cloudy,250,2013-02-27 19:35:00
2:55 PM,44.6,35.6,71,29.72,10.0,SW,8.1,-,N/A,,Mostly Cloudy,230,2013-02-27 19:55:00
3:15 PM,42.8,35.6,76,29.73,10.0,SW,11.5,18.4,N/A,,Overcast,230,2013-02-27 20:15:00
3:35 PM,44.6,35.6,71,29.73,10.0,West,8.1,-,N/A,,Mostly Cloudy,280,2013-02-27 20:35:00
3:55 PM,44.6,35.6,71,29.73,10.0,West,8.1,-,N/A,,Mostly Cloudy,270,2013-02-27 20:55:00
4:15 PM,42.8,35.6,76,29.72,10.0,West,6.9,18.4,N/A,,Overcast,280,2013-02-27 21:15:00
4:35 PM,42.8,35.6,76,29.72,10.0,West,11.5,17.3,N/A,,Scattered Clouds,270,2013-02-27 21:35:00
4:55 PM,42.8,35.6,76,29.72,10.0,West,8.1,16.1,N/A,,Scattered Clouds,280,2013-02-27 21:55:00
5:15 PM,42.8,35.6,76,29.72,10.0,West,8.1,-,N/A,,Scattered Clouds,270,2013-02-27 22:15:00
5:35 PM,42.8,35.6,76,29.72,10.0,West,4.6,-,N/A,,Clear,270,2013-02-27 22:35:00
5:55 PM,41.0,33.8,76,29.72,10.0,West,8.1,-,N/A,,Clear,280,2013-02-27 22:55:00
6:15 PM,41.0,33.8,76,29.72,10.0,WNW,5.8,-,N/A,,Clear,290,2013-02-27 23:15:00
6:35 PM,39.2,33.8,81,29.73,10.0,West,6.9,-,N/A,,Clear,280,2013-02-27 23:35:00
6:55 PM,39.2,33.8,81,29.74,10.0,West,4.6,-,N/A,,Clear,280,2013-02-27 23:55:00
7:15 PM,37.4,33.8,87,29.74,10.0,West,5.8,-,N/A,,Clear,280,2013-02-28 00:15:00
7:35 PM,37.4,33.8,87,29.74,10.0,West,3.5,-,N/A,,Clear,270,2013-02-28 00:35:00
7:55 PM,37.4,33.8,87,29.74,10.0,West,3.5,-,N/A,,Scattered Clouds,260,2013-02-28 00:55:00
8:15 PM,39.2,35.6,87,29.74,10.0,West,4.6,-,N/A,,Overcast,260,2013-02-28 01:15:00
8:35 PM,39.2,35.6,87,29.75,10.0,West,4.6,-,N/A,,Overcast,270,2013-02-28 01:35:00
9:15 PM,39.2,35.6,87,29.74,10.0,West,6.9,-,N/A,,Mostly Cloudy,260,2013-02-28 02:15:00
9:35 PM,39.2,35.6,87,29.74,10.0,West,10.4,-,N/A,,Mostly Cloudy,270,2013-02-28 02:35:00
9:55 PM,37.4,35.6,93,29.73,10.0,WSW,8.1,-,N/A,,Scattered Clouds,240,2013-02-28 02:55:00
10:15 PM,37.4,35.6,93,29.73,10.0,WSW,8.1,-,N/A,,Scattered Clouds,250,2013-02-28 03:15:00
10:35 PM,37.4,35.6,93,29.72,10.0,WSW,6.9,-,N/A,,Scattered Clouds,240,2013-02-28 03:35:00
10:55 PM,37.4,35.6,93,29.72,10.0,WSW,6.9,-,N/A,,Mostly Cloudy,250,2013-02-28 03:55:00
11:15 PM,37.4,35.6,93,29.72,10.0,West,8.1,-,N/A,,Mostly Cloudy,260,2013-02-28 04:15:00
11:35 PM,35.6,35.6,100,29.71,10.0,West,6.9,-,N/A,,Mostly Cloudy,260,2013-02-28 04:35:00
11:55 PM,37.4,35.6,93,29.71,10.0,West,6.9,-,N/A,Snow,Light Snow,280,2013-02-28 04:55:00